User: anonymous   Login
Location: Eschentzwiller
(47.7125°N, 7.3981°E)
Time: 09:44:45
(UTC+00:00)
Language:

ERBS - Orbit

View from above orbital plane
View from above orbital plane
View from above satellite
View from above satellite

Ground track
Ground track

The orbit data is extracted from the following two-line orbital elements,

1 15354U 84108B   21017.09678167  .00002622  00000-0  51320-4 0  9991
2 15354  57.0036 226.7101 0014984  96.9685 263.3079 15.51283687   971
Epoch (UTC): 17 January 2021 02:19:21
Eccentricity: 0.0014984
inclination: 57.0036°
perigee height: 403 km
apogee height: 423 km
right ascension of ascending node: 226.7101°
argument of perigee: 96.9685°
revolutions per day: 15.51283687
mean anomaly at epoch: 263.3079°
orbit number at epoch: 97

The dashed part of the orbit path shows where the satellite is in the earth's shadow,  

DLR